 day,  time,  air_temp(C),  RH(%),  ground_temp10cm(C),  ground_temp20cm(C),  ground_temp40cm(C),  precipitation(mm/h),  Solar_Radiation(MJ/m2h),  lack, 
 03/02/01, 01:00,  -9.3,  91,   0.4,   1.0,   2.0,   0.0,  0.00, 
 03/02/01, 02:00, -10.1,  87,   0.5,   1.0,   2.0,   0.0,  0.00, 
 03/02/01, 03:00, -10.1,  88,   0.5,   1.0,   2.0,   0.0,  0.00, 
 03/02/01, 04:00,  -9.6,  78,   0.4,   1.0,   2.0,   0.0,  0.00, 
 03/02/01, 05:00,  -9.9,  81,   0.4,   1.0,   2.0,   0.0,  0.00, 
 03/02/01, 06:00, -10.6,  83,   0.4,   1.0,   2.0,   0.0,  0.00, 
 03/02/01, 07:00,  -9.6,  76,   0.4,   1.0,   2.0,   0.0,  0.00, 
 03/02/01, 08:00,  -9.5,  80,   0.4,   1.0,   2.0,   0.5,  0.03, 
 03/02/01, 09:00,  -9.4,  83,   0.4,   1.0,   2.0,   0.0,  0.18, 
 03/02/01, 10:00,  -8.3,  75,   0.4,   1.0,   2.0,   0.0,  0.41, 
 03/02/01, 11:00,  -8.4,  73,   0.5,   1.0,   2.0,   0.0,  0.61, 
 03/02/01, 12:00,  -7.5,  72,   0.5,   1.0,   2.0,   0.0,  1.40, 
 03/02/01, 13:00,  -7.2,  71,   0.5,   1.0,   2.1,   0.0,  2.55, 
 03/02/01, 14:00,  -7.2,  69,   0.5,   1.0,   2.1,   0.0,  2.72, 
 03/02/01, 15:00,  -7.1,  73,   0.5,   1.0,   2.0,   0.0,  1.17, 
 03/02/01, 16:00,  -7.3,  75,   0.5,   1.0,   2.0,   0.0,  0.76, 
 03/02/01, 17:00,  -8.4,  83,   0.5,   1.0,   2.0,   0.0,  0.12, 
 03/02/01, 18:00,  -9.0,  87,   0.4,   1.0,   2.0,   0.0,  0.00, 
 03/02/01, 19:00, -10.1,  89,   0.5,   1.0,   2.0,   0.0,  0.00, 
 03/02/01, 20:00, -10.0,  90,   0.4,   1.0,   2.0,   0.0,  0.00, 
 03/02/01, 21:00, -10.3,  86,   0.4,   1.0,   2.0,   0.0,  0.00, 
 03/02/01, 22:00, -10.8,  85,   0.4,   1.0,   2.0,   0.0,  0.00, 
 03/02/01, 23:00, -13.7,  92,   0.4,   1.0,   2.0,   0.0,  0.00, 
 03/02/02, 00:00, -12.2,  87,   0.4,   1.0,   2.0,   0.0,  0.00, 
 03/02/02, 01:00, -13.8,  85,   0.4,   1.0,   2.0,   0.0,  0.00, 
 03/02/02, 02:00, -13.7,  90,   0.4,   1.0,   2.0,   0.0,  0.00, 
 03/02/02, 03:00, -11.3,  80,   0.4,   1.0,   2.0,   0.0,  0.00, 
 03/02/02, 04:00, -10.9,  82,   0.4,   1.0,   2.0,   0.0,  0.00, 
 03/02/02, 05:00, -11.6,  85,   0.4,   1.0,   2.0,   0.0,  0.00, 
 03/02/02, 06:00, -11.4,  88,   0.4,   1.0,   2.0,   0.0,  0.00, 
 03/02/02, 07:00, -11.3,  88,   0.4,   1.0,   2.0,   0.0,  0.00, 
 03/02/02, 08:00, -10.8,  87,   0.4,   1.0,   2.0,   0.0,  0.12, 
 03/02/02, 09:00,  -8.6,  81,   0.4,   1.0,   2.0,   0.0,  0.52, 
 03/02/02, 10:00,  -7.4,  74,   0.4,   1.0,   2.0,   0.0,  0.83, 
 03/02/02, 11:00,  -7.5,  79,   0.5,   1.0,   2.0,   0.0,  0.92, 
 03/02/02, 12:00,  -6.1,  75,   0.5,   1.0,   2.0,   0.0,  1.17, 
 03/02/02, 13:00,  -5.8,  78,   0.4,   1.0,   2.0,   0.0,  1.29, 
 03/02/02, 14:00,  -6.0,  75,   0.5,   1.0,   2.0,   0.0,  1.17, 
 03/02/02, 15:00,  -6.0,  79,   0.5,   1.0,   2.0,   0.0,  1.13, 
 03/02/02, 16:00,  -6.9,  81,   0.5,   1.0,   2.0,   0.0,  0.29, 
 03/02/02, 17:00,  -7.8,  86,   0.5,   1.0,   2.0,   0.0,  0.18, 
 03/02/02, 18:00,  -8.6,  90,   0.4,   1.0,   2.0,   0.0,  0.00, 
 03/02/02, 19:00,  -8.7,  91,   0.4,   1.0,   2.0,   0.0,  0.00, 
 03/02/02, 20:00,  -8.7,  90,   0.4,   1.0,   2.0,   0.0,  0.00, 
 03/02/02, 21:00,  -8.8,  88,   0.4,   1.0,   2.0,   0.0,  0.00, 
 03/02/02, 22:00, -11.5,  90,   0.4,   1.0,   2.0,   0.0,  0.00, 
 03/02/02, 23:00,  -9.0,  79,   0.4,   1.0,   2.0,   0.0,  0.00, 
 03/02/03, 00:00,  -8.7,  82,   0.4,   1.0,   2.0,   0.0,  0.00, 
 03/02/03, 01:00,  -8.9,  83,   0.4,   1.0,   2.0,   0.0,  0.00, 
 03/02/03, 02:00,  -9.1,  81,   0.4,   1.0,   2.0,   0.0,  0.00, 
 03/02/03, 03:00,  -9.0,  79,   0.4,   1.0,   2.0,   0.0,  0.00, 
 03/02/03, 04:00,  -9.7,  76,   0.4,   1.0,   2.0,   0.0,  0.00, 
 03/02/03, 05:00,  -9.8,  73,   0.4,   1.0,   2.0,   0.0,  0.00, 
 03/02/03, 06:00, -10.2,  72,   0.4,   1.0,   2.0,   0.0,  0.00, 
 03/02/03, 07:00,  -9.2,  66,   0.4,   1.0,   2.0,   0.0,  0.00, 
 03/02/03, 08:00,  -8.8,  70,   0.4,   1.0,   2.0,   0.0,  0.17, 
 03/02/03, 09:00,  -6.2,  64,   0.4,   1.0,   2.0,   0.0,  1.23, 
 03/02/03, 10:00,  -4.8,  65,   0.5,   1.0,   2.0,   0.0,  2.03, 
 03/02/03, 11:00,  -5.8,  73,   0.5,   1.0,   2.1,   0.0,  2.50, 
 03/02/03, 12:00,  -5.2,  72,   0.6,   1.1,   2.1,   0.0,  2.53, 
 03/02/03, 13:00,  -5.0,  72,   0.6,   1.1,   2.1,   0.0,  1.92, 
 03/02/03, 14:00,  -4.2,  66,   0.6,   1.1,   2.1,   0.0,  1.47, 
 03/02/03, 15:00,  -4.9,  69,   0.6,   1.1,   2.1,   0.0,  1.45, 
 03/02/03, 16:00,  -5.2,  70,   0.6,   1.1,   2.1,   0.0,  0.85, 
 03/02/03, 17:00,  -6.7,  79,   0.6,   1.1,   2.1,   0.0,  0.22, 
 03/02/03, 18:00,  -7.3,  81,   0.5,   1.1,   2.1,   0.0,  0.00, 
 03/02/03, 19:00,  -7.4,  88,   0.5,   1.1,   2.1,   0.0,  0.00, 
 03/02/03, 20:00,  -8.1,  90,   0.5,   1.0,   2.1,   0.0,  0.00, 
 03/02/03, 21:00,  -8.1,  88,   0.5,   1.0,   2.1,   0.0,  0.00, 
 03/02/03, 22:00,  -8.9,  90,   0.5,   1.0,   2.1,   0.0,  0.00, 
 03/02/03, 23:00,  -9.3,  87,   0.5,   1.0,   2.1,   0.0,  0.00, 
 03/02/04, 00:00, -10.1,  89,   0.5,   1.0,   2.1,   0.0,  0.00, 
 03/02/04, 01:00, -11.0,  87,   0.5,   1.0,   2.0,   0.0,  0.00, 
 03/02/04, 02:00, -11.0,  84,   0.5,   1.0,   2.0,   0.0,  0.00, 
 03/02/04, 03:00, -11.6,  86,   0.5,   1.0,   2.0,   0.0,  0.00, 
 03/02/04, 04:00, -10.7,  79,   0.5,   1.0,   2.0,   0.0,  0.00, 
 03/02/04, 05:00, -11.6,  84,   0.5,   1.0,   2.0,   0.0,  0.00, 
 03/02/04, 06:00, -11.2,  79,   0.5,   1.0,   2.0,   0.0,  0.00, 
 03/02/04, 07:00, -11.3,  81,   0.5,   1.0,   2.0,   0.0,  0.00, 
 03/02/04, 08:00, -10.2,  84,   0.5,   1.0,   2.0,   0.0,  0.15, 
 03/02/04, 09:00,  -8.9,  79,   0.5,   1.0,   2.0,   0.0,  0.46, 
 03/02/04, 10:00,  -6.2,  62,   0.5,   1.0,   2.0,   0.0,  0.63, 
 03/02/04, 11:00,  -5.4,  63,   0.5,   1.0,   2.1,   0.0,  1.21, 
 03/02/04, 12:00,  -3.8,  51,   0.6,   1.1,   2.1,   0.0,  2.40, 
 03/02/04, 13:00,  -4.5,  57,   0.6,   1.1,   2.1,   0.0,  2.29, 
 03/02/04, 14:00,  -3.8,  54,   0.6,   1.1,   2.1,   0.0,  1.98, 
 03/02/04, 15:00,  -3.8,  52,   0.6,   1.1,   2.1,   0.0,  1.25, 
 03/02/04, 16:00,  -3.9,  56,   0.6,   1.1,   2.1,   0.0,  0.86, 
 03/02/04, 17:00,  -5.0,  67,   0.6,   1.1,   2.1,   0.0,  0.19, 
 03/02/04, 18:00,  -5.9,  70,   0.5,   1.1,   2.1,   0.0,  0.00, 
 03/02/04, 19:00,  -6.7,  74,   0.5,   1.0,   2.1,   0.0,  0.00, 
 03/02/04, 20:00,  -7.3,  76,   0.5,   1.0,   2.1,   0.0,  0.00, 
 03/02/04, 21:00,  -5.9,  65,   0.5,   1.0,   2.1,   0.0,  0.00, 
 03/02/04, 22:00,  -6.9,  68,   0.5,   1.0,   2.1,   0.0,  0.00, 
 03/02/04, 23:00,  -7.7,  75,   0.5,   1.0,   2.1,   0.0,  0.00, 
 03/02/05, 00:00,  -6.0,  70,   0.5,   1.0,   2.1,   0.0,  0.00, 
 03/02/05, 01:00,  -5.9,  77,   0.5,   1.0,   2.0,   0.0,  0.00, 
 03/02/05, 02:00,  -6.2,  77,   0.5,   1.0,   2.0,   0.0,  0.00, 
 03/02/05, 03:00,  -6.7,  81,   0.5,   1.0,   2.0,   0.0,  0.00, 
 03/02/05, 04:00,  -6.7,  83,   0.5,   1.0,   2.0,   0.0,  0.00, 
 03/02/05, 05:00,  -6.1,  81,   0.5,   1.0,   2.0,   0.0,  0.00, 
 03/02/05, 06:00,  -6.8,  90,   0.5,   1.0,   2.0,   0.0,  0.00, 
 03/02/05, 07:00,  -7.1,  91,   0.5,   1.0,   2.0,   0.0,  0.00, 
 03/02/05, 08:00,  -6.5,  92,   0.4,   1.0,   2.0,   0.0,  0.10, 
 03/02/05, 09:00,  -6.9,  93,   0.5,   1.0,   2.0,   0.0,  0.27, 
 03/02/05, 10:00,  -6.3,  91,   0.5,   1.0,   2.0,   0.5,  0.40, 
 03/02/05, 11:00,  -5.1,  89,   0.5,   1.0,   2.0,   0.0,  0.73, 
 03/02/05, 12:00,  -4.9,  93,   0.5,   1.0,   2.0,   0.0,  0.81, 
 03/02/05, 13:00,  -4.1,  87,   0.5,   1.0,   2.0,   0.5,  0.87, 
 03/02/05, 14:00,  -3.5,  82,   0.5,   1.0,   2.0,   0.0,  1.12, 
 03/02/05, 15:00,  -3.9,  75,   0.5,   1.0,   2.1,   0.0,  0.85, 
 03/02/05, 16:00,  -4.5,  77,   0.5,   1.0,   2.1,   0.0,  0.70, 
 03/02/05, 17:00,  -5.6,  85,   0.5,   1.0,   2.1,   0.0,  0.19, 
 03/02/05, 18:00,  -6.7,  85,   0.5,   1.0,   2.0,   0.0,  0.00, 
 03/02/05, 19:00,  -6.7,  93,   0.5,   1.0,   2.0,   0.0,  0.00, 
 03/02/05, 20:00,  -7.4,  91,   0.5,   1.0,   2.0,   0.0,  0.00, 
 03/02/05, 21:00,  -7.1,  90,   0.5,   1.0,   2.0,   0.0,  0.00, 
 03/02/05, 22:00,  -7.3,  91,   0.5,   1.0,   2.0,   0.0,  0.00, 
 03/02/05, 23:00,  -7.9,  92,   0.5,   1.0,   2.0,   0.0,  0.00, 
 03/02/06, 00:00,  -8.7,  92,   0.5,   1.0,   2.0,   0.0,  0.00, 
 03/02/06, 01:00,  -9.5,  86,   0.5,   1.0,   2.0,   0.0,  0.00, 
 03/02/06, 02:00, -10.1,  85,   0.5,   1.0,   2.0,   0.0,  0.00, 
 03/02/06, 03:00,  -9.4,  83,   0.4,   1.0,   2.0,   0.0,  0.00, 
 03/02/06, 04:00,  -9.5,  86,   0.4,   1.0,   2.0,   0.0,  0.00, 
 03/02/06, 05:00,  -9.6,  89,   0.4,   1.0,   2.0,   0.0,  0.00, 
 03/02/06, 06:00,  -9.2,  90,   0.4,   1.0,   2.0,   0.0,  0.00, 
 03/02/06, 07:00,  -9.3,  90,   0.4,   1.0,   2.0,   0.5,  0.00, 
 03/02/06, 08:00,  -9.1,  90,   0.4,   1.0,   2.0,   0.0,  0.03, 
 03/02/06, 09:00,  -8.2,  85,   0.5,   1.0,   2.0,   0.0,  0.64, 
 03/02/06, 10:00,  -7.5,  80,   0.5,   1.0,   2.0,   0.5,  1.11, 
 03/02/06, 11:00,  -7.3,  81,   0.5,   1.0,   2.1,   0.0,  1.35, 
 03/02/06, 12:00,  -6.7,  72,   0.6,   1.1,   2.1,   0.0,  1.95, 
 03/02/06, 13:00,  -7.0,  73,   0.6,   1.1,   2.1,   0.0,  1.97, 
 03/02/06, 14:00,  -6.6,  73,   0.6,   1.1,   2.1,   0.0,  1.46, 
 03/02/06, 15:00,  -6.8,  75,   0.6,   1.1,   2.1,   0.0,  1.46, 
 03/02/06, 16:00,  -7.0,  67,   0.6,   1.1,   2.1,   0.0,  1.19, 
 03/02/06, 17:00,  -7.9,  76,   0.6,   1.1,   2.1,   0.0,  0.22, 
 03/02/06, 18:00,  -8.8,  86,   0.6,   1.1,   2.1,   0.0,  0.00, 
 03/02/06, 19:00,  -9.7,  86,   0.6,   1.1,   2.1,   0.0,  0.00, 
 03/02/06, 20:00, -11.0,  87,   0.5,   1.1,   2.1,   0.0,  0.00, 
 03/02/06, 21:00, -10.1,  89,   0.5,   1.1,   2.1,   0.0,  0.00, 
 03/02/06, 22:00,  -9.4,  82,   0.5,   1.0,   2.1,   0.0,  0.00, 
 03/02/06, 23:00, -10.3,  80,   0.5,   1.0,   2.1,   0.0,  0.00, 
 03/02/07, 00:00,  -9.6,  80,   0.5,   1.0,   2.1,   0.0,  0.00, 
 03/02/07, 01:00,  -9.9,  79,   0.5,   1.0,   2.0,   0.0,  0.00, 
 03/02/07, 02:00,  -8.3,  80,   0.5,   1.0,   2.1,   0.0,  0.00, 
 03/02/07, 03:00,  -7.3,  80,   0.5,   1.0,   2.0,   0.0,  0.00, 
 03/02/07, 04:00,  -6.9,  80,   0.5,   1.0,   2.0,   0.0,  0.00, 
 03/02/07, 05:00,  -6.2,  73,   0.5,   1.0,   2.0,   0.0,  0.00, 
 03/02/07, 06:00,  -5.2,  68,   0.5,   1.0,   2.0,   0.0,  0.00, 
 03/02/07, 07:00,  -3.7,  58,   0.5,   1.0,   2.0,   0.0,  0.00, 
 03/02/07, 08:00,  -1.5,  48,   0.5,   1.0,   2.0,   0.0,  0.31, 
 03/02/07, 09:00,   1.5,  34,   0.5,   1.0,   2.1,   0.0,  1.11, 
 03/02/07, 10:00,   2.3,  34,   0.5,   1.0,   2.1,   0.0,  1.53, 
 03/02/07, 11:00,   3.7,  37,   0.6,   1.1,   2.1,   0.0,  1.95, 
 03/02/07, 12:00,   3.1,  30,   0.6,   1.1,   2.1,   0.0,  2.46, 
 03/02/07, 13:00,   3.0,  34,   0.6,   1.1,   2.1,   0.0,  2.51, 
 03/02/07, 14:00,   2.7,  38,   0.6,   1.1,   2.1,   0.5,  2.28, 
 03/02/07, 15:00,   2.0,  42,   0.6,   1.1,   2.1,   0.0,  1.77, 
 03/02/07, 16:00,   1.6,  37,   0.6,   1.1,   2.1,   0.0,  1.21, 
 03/02/07, 17:00,   0.8,  38,   0.5,   1.1,   2.1,   0.0,  0.23, 
 03/02/07, 18:00,  -1.5,  52,   0.5,   1.1,   2.1,   0.0,  0.00, 
 03/02/07, 19:00,  -2.6,  59,   0.5,   1.0,   2.1,   0.0,  0.00, 
 03/02/07, 20:00,  -2.8,  58,   0.5,   1.1,   2.1,   0.0,  0.00, 
 03/02/07, 21:00,  -2.9,  60,   0.5,   1.0,   2.1,   0.0,  0.00, 
 03/02/07, 22:00,  -3.6,  62,   0.5,   1.0,   2.1,   0.0,  0.00, 
 03/02/07, 23:00,  -3.5,  58,   0.5,   1.0,   2.1,   0.0,  0.00, 
 03/02/08, 00:00,  -3.0,  64,   0.5,   1.0,   2.1,   0.0,  0.00, 
 03/02/08, 01:00,  -3.4,  76,   0.5,   1.0,   2.1,   0.0,  0.00, 
 03/02/08, 02:00,  -3.0,  70,   0.5,   1.0,   2.1,   0.0,  0.00, 
 03/02/08, 03:00,  -2.5,  48,   0.5,   1.0,   2.1,   0.0,  0.00, 
 03/02/08, 04:00,  -2.1,  38,   0.5,   1.0,   2.1,   0.0,  0.00, 
 03/02/08, 05:00,  -2.4,  44,   0.5,   1.0,   2.1,   0.0,  0.00, 
 03/02/08, 06:00,  -1.4,  44,   0.5,   1.0,   2.1,   0.0,  0.00, 
 03/02/08, 07:00,  -1.8,  47,   0.5,   1.0,   2.1,   0.0,  0.00, 
 03/02/08, 08:00,   0.9,  37,   0.5,   1.0,   2.1,   0.0,  0.28, 
 03/02/08, 09:00,   2.6,  29,   0.5,   1.0,   2.1,   0.0,  1.02, 
 03/02/08, 10:00,   3.8,  21,   0.5,   1.0,   2.1,   0.0,  1.16, 
 03/02/08, 11:00,   3.6,  26,   0.5,   1.0,   2.1,   0.0,  1.00, 
 03/02/08, 12:00,   4.2,  29,   0.5,   1.0,   2.1,   0.0,  1.12, 
 03/02/08, 13:00,   4.2,  36,   0.5,   1.0,   2.1,   0.0,  0.94, 
 03/02/08, 14:00,   3.7,  44,   0.5,   1.0,   2.1,   0.0,  0.71, 
 03/02/08, 15:00,   4.1,  46,   0.5,   1.0,   2.1,   0.0,  0.68, 
 03/02/08, 16:00,   3.8,  42,   0.5,   1.0,   2.1,   0.0,  0.50, 
 03/02/08, 17:00,   2.5,  58,   0.5,   1.0,   2.1,   0.0,  0.07, 
 03/02/08, 18:00,   1.9,  68,   0.5,   1.0,   2.0,   0.0,  0.00, 
 03/02/08, 19:00,   2.5,  77,   0.5,   1.0,   2.0,   0.0,  0.00, 
 03/02/08, 20:00,   0.4,  96,   0.5,   1.0,   2.1,   0.0,  0.00, 
 03/02/08, 21:00,   0.6,  97,   0.5,   1.0,   2.0,   0.0,  0.00, 
 03/02/08, 22:00,   1.6,  95,   0.5,   1.0,   2.1,   1.0,  0.00, 
 03/02/08, 23:00,   1.5,  97,   0.5,   1.0,   2.1,   3.0,  0.00, 
 03/02/09, 00:00,   1.3,  94,   0.5,   1.0,   2.1,   4.0,  0.00, 
 03/02/09, 01:00,   2.8,  93,   0.5,   1.0,   2.1,   0.5,  0.00, 
 03/02/09, 02:00,   3.6,  99,   0.5,   1.0,   2.0,   0.0,  0.00, 
 03/02/09, 03:00,   3.3,  99,   0.5,   1.0,   2.1,   0.0,  0.00, 
 03/02/09, 04:00,   2.7,  99,   0.5,   1.0,   2.0,   0.5,  0.00, 
 03/02/09, 05:00,   2.8,  97,   0.5,   1.0,   2.0,   0.0,  0.00, 
 03/02/09, 06:00,   2.4,  99,   0.5,   1.0,   2.1,   0.0,  0.00, 
 03/02/09, 07:00,   2.9,  95,   0.5,   1.0,   2.0,   0.5,  0.00, 
 03/02/09, 08:00,   2.6,  98,   0.5,   1.0,   2.0,   0.0,  0.01, 
 03/02/09, 09:00,   2.1,  99,   0.5,   1.0,   2.0,   0.0,  0.09, 
 03/02/09, 10:00,   2.3,  99,   0.5,   1.0,   2.1,   0.0,  0.53, 
 03/02/09, 11:00,   3.4,  97,   0.5,   1.0,   2.1,   0.0,  1.42, 
 03/02/09, 12:00,   2.2,  99,   0.5,   1.0,   2.1,   0.0,  1.29, 
 03/02/09, 13:00,   2.2,  99,   0.5,   1.0,   2.1,   0.0,  1.28, 
 03/02/09, 14:00,   3.3,  99,   0.5,   1.0,   2.1,   0.0,  2.00, 
 03/02/09, 15:00,   3.1,  90,   0.5,   1.0,   2.1,   0.0,  1.12, 
 03/02/09, 16:00,   1.3,  99,   0.5,   1.0,   2.1,   0.0,  0.71, 
 03/02/09, 17:00,   0.3,  99,   0.5,   1.0,   2.0,   0.0,  0.04, 
 03/02/09, 18:00,   0.0,  99,   0.5,   1.0,   2.1,   0.0,  0.00, 
 03/02/09, 19:00,  -0.3,  99,   0.5,   1.0,   2.0,   0.0,  0.00, 
 03/02/09, 20:00,  -0.9,  99,   0.5,   1.0,   2.0,   0.0,  0.00, 
 03/02/09, 21:00,  -1.6,  99,   0.5,   1.0,   2.1,   0.0,  0.00, 
 03/02/09, 22:00,  -1.3,  63,   0.5,   1.0,   2.1,   0.0,  0.00, 
 03/02/09, 23:00,  -0.5,  49,   0.5,   1.0,   2.0,   0.0,  0.00, 
 03/02/10, 00:00,  -1.4,  60,   0.5,   1.0,   2.0,   0.0,  0.00, 
 03/02/10, 01:00,   1.1,  59,   0.5,   1.0,   2.0,   0.0,  0.00, 
 03/02/10, 02:00,   0.7,  79,   0.5,   1.0,   2.0,   0.0,  0.00, 
 03/02/10, 03:00,   2.3,  89,   0.5,   1.0,   2.0,   0.0,  0.00, 
 03/02/10, 04:00,   1.6,  97,   0.5,   1.0,   2.0,   0.0,  0.00, 
 03/02/10, 05:00,   2.2,  85,   0.5,   1.0,   2.0,   0.0,  0.00, 
 03/02/10, 06:00,   2.7,  87,   0.5,   1.0,   2.0,   0.0,  0.00, 
 03/02/10, 07:00,   3.1,  86,   0.5,   1.0,   2.0,   0.0,  0.00, 
 03/02/10, 08:00,   3.5,  84,   0.5,   1.0,   2.0,   0.0,  0.19, 
 03/02/10, 09:00,   4.8,  79,   0.5,   1.0,   2.0,   0.0,  0.63, 
 03/02/10, 10:00,   4.9,  81,   0.5,   1.0,   2.0,   0.0,  0.70, 
 03/02/10, 11:00,   5.3,  79,   0.5,   1.0,   2.0,   0.0,  1.07, 
 03/02/10, 12:00,   5.1,  83,   0.5,   1.0,   2.0,   0.0,  0.84, 
 03/02/10, 13:00,   4.1,  90,   0.5,   1.1,   2.0,   0.0,  0.38, 
 03/02/10, 14:00,   4.0,  93,   0.5,   1.1,   2.0,   0.0,  0.42, 
 03/02/10, 15:00,   4.3,  94,   0.5,   1.1,   2.0,   0.0,  0.37, 
 03/02/10, 16:00,   3.9,  90,   0.5,   1.1,   2.0,   0.0,  0.28, 
 03/02/10, 17:00,   3.8,  88,   0.5,   1.0,   2.0,   0.0,  0.20, 
 03/02/10, 18:00,   3.8,  79,   0.5,   1.0,   2.0,   0.0,  0.00, 
 03/02/10, 19:00,   2.9,  82,   0.5,   1.0,   2.0,   0.0,  0.00, 
 03/02/10, 20:00,   3.1,  80,   0.5,   1.0,   2.0,   0.0,  0.00, 
 03/02/10, 21:00,   3.0,  83,   0.5,   1.0,   2.0,   0.0,  0.00, 
 03/02/10, 22:00,   3.0,  85,   0.5,   1.0,   2.0,   0.0,  0.00, 
 03/02/10, 23:00,   3.2,  87,   0.5,   1.0,   2.0,   0.0,  0.00, 
 03/02/11, 00:00,   2.1,  92,   0.5,   1.0,   2.0,   0.0,  0.00, 
 03/02/11, 01:00,   2.0,  95,   0.5,   1.0,   2.0,   0.0,  0.00, 
 03/02/11, 02:00,   2.3,  93,   0.5,   1.0,   2.0,   0.0,  0.00, 
 03/02/11, 03:00,   2.3,  94,   0.5,   1.0,   2.0,   0.0,  0.00, 
 03/02/11, 04:00,   3.1,  83,   0.5,   1.0,   2.0,   0.0,  0.00, 
 03/02/11, 05:00,   2.7,  83,   0.5,   1.0,   2.0,   0.0,  0.00, 
 03/02/11, 06:00,   3.3,  83,   0.5,   1.0,   2.0,   0.0,  0.00, 
 03/02/11, 07:00,   3.1,  85,   0.5,   1.0,   2.0,   0.0,  0.00, 
 03/02/11, 08:00,   3.1,  86,   0.5,   1.0,   2.0,   0.0,  0.00, 
 03/02/11, 09:00,   3.8,  82,   0.5,   1.0,   2.0,   0.0,  0.14, 
 03/02/11, 10:00,   3.9,  83,   0.5,   1.0,   2.0,   0.0,  0.21, 
 03/02/11, 11:00,   3.2,  93,   0.5,   1.0,   2.0,   0.0,  0.14, 
 03/02/11, 12:00,   2.8,  98,   0.5,   1.0,   2.0,   0.5,  0.20, 
 03/02/11, 13:00,   2.8,  96,   0.5,   1.0,   2.0,   0.0,  0.23, 
 03/02/11, 14:00,   2.7,  99,   0.5,   1.0,   2.0,   0.0,  0.15, 
 03/02/11, 15:00,   2.8,  99,   0.5,   1.0,   2.0,   1.0,  0.08, 
 03/02/11, 16:00,   2.6,  99,   0.5,   0.9,   2.0,   1.5,  0.01, 
 03/02/11, 17:00,   1.9,  99,   0.5,   0.9,   2.0,   2.0,  0.00, 
 03/02/11, 18:00,   0.5,  99,   0.5,   0.9,   2.0,   2.5,  0.00, 
 03/02/11, 19:00,   0.4,  99,   0.5,   0.9,   2.0,   0.5,  0.00, 
 03/02/11, 20:00,  -0.3,  98,   0.5,   0.9,   1.9,   0.0,  0.00, 
 03/02/11, 21:00,  -0.6,  92,   0.4,   0.9,   2.0,   0.0,  0.00, 
 03/02/11, 22:00,   0.0,  87,   0.3,   0.9,   1.9,   0.0,  0.00, 
 03/02/11, 23:00,   0.4,  85,   0.5,   0.9,   1.8,   0.0,  0.00, 
 03/02/12, 00:00,  -0.9,  98,   0.4,   0.9,   1.8,   0.5,  0.00, 
 03/02/12, 01:00,  -2.3,  94,   0.5,   0.9,   1.9,   1.0,  0.00, 
 03/02/12, 02:00,  -3.6,  96,   0.5,   0.9,   1.8,   0.0,  0.00, 
 03/02/12, 03:00,  -5.1,  94,   0.5,   0.9,   1.9,   0.0,  0.00, 
 03/02/12, 04:00,  -5.9,  94,   0.5,   0.9,   1.8,   0.0,  0.00, 
 03/02/12, 05:00,  -7.2,  92,   0.4,   0.9,   1.8,   0.0,  0.00, 
 03/02/12, 06:00,  -7.5,  95,   0.4,   0.9,   1.8,   0.0,  0.00, 
 03/02/12, 07:00,  -7.9,  93,   0.5,   0.9,   1.8,   0.5,  0.00, 
 03/02/12, 08:00,  -7.9,  91,   0.5,   0.9,   1.8,   0.0,  0.20, 
 03/02/12, 09:00,  -6.8,  91,   0.5,   0.9,   1.9,   0.0,  1.17, 
 03/02/12, 10:00,  -6.3,  77,   0.5,   0.9,   1.9,   0.0,  1.35, 
 03/02/12, 11:00,  -5.5,  68,   0.5,   1.0,   1.9,   0.0,  1.44, 
 03/02/12, 12:00,  -6.0,  64,   0.5,   1.0,   1.9,   0.0,  1.59, 
 03/02/12, 13:00,  -5.5,  64,   0.5,   1.0,   1.9,   0.0,  1.97, 
 03/02/12, 14:00,  -5.2,  59,   0.5,   1.0,   1.9,   0.0,  2.13, 
 03/02/12, 15:00,  -4.6,  62,   0.5,   1.0,   1.9,   0.0,  1.95, 
 03/02/12, 16:00,  -5.6,  57,   0.5,   1.0,   1.9,   0.0,  1.54, 
 03/02/12, 17:00,  -6.2,  58,   0.5,   0.9,   1.9,   0.0,  0.56, 
 03/02/12, 18:00,  -7.4,  64,   0.5,   0.9,   1.9,   0.0,  0.01, 
 03/02/12, 19:00,  -7.5,  64,   0.5,   0.9,   1.9,   0.0,  0.00, 
 03/02/12, 20:00,  -7.7,  61,   0.5,   0.9,   1.8,   0.0,  0.00, 
 03/02/12, 21:00,  -8.2,  67,   0.5,   0.9,   1.8,   0.0,  0.00, 
 03/02/12, 22:00,  -6.7,  57,   0.5,   0.9,   1.8,   0.0,  0.00, 
 03/02/12, 23:00,  -6.9,  57,   0.5,   0.9,   1.8,   0.0,  0.00, 
 03/02/13, 00:00,  -7.8,  65,   0.5,   0.9,   1.8,   0.0,  0.00, 
 03/02/13, 01:00,  -7.2,  62,   0.5,   0.9,   1.8,   0.0,  0.00, 
 03/02/13, 02:00,  -8.5,  72,   0.5,   0.9,   1.8,   0.0,  0.00, 
 03/02/13, 03:00,  -8.7,  73,   0.4,   0.9,   1.8,   0.0,  0.00, 
 03/02/13, 04:00,  -6.2,  61,   0.4,   0.9,   1.8,   0.0,  0.00, 
 03/02/13, 05:00,  -6.4,  66,   0.5,   0.9,   1.8,   0.0,  0.00, 
 03/02/13, 06:00,  -6.1,  78,   0.4,   0.9,   1.8,   0.0,  0.00, 
 03/02/13, 07:00,  -6.5,  84,   0.4,   0.9,   1.8,   0.0,  0.00, 
 03/02/13, 08:00,  -6.5,  85,   0.4,   0.9,   1.8,   0.0,  0.01, 
 03/02/13, 09:00,  -5.9,  78,   0.4,   0.9,   1.8,   0.0,  0.58, 
 03/02/13, 10:00,  -5.6,  71,   0.5,   0.9,   2.0,   0.0,  1.01, 
 03/02/13, 11:00,  -3.2,  70,   0.5,   1.0,   2.0,   0.0,  1.45, 
 03/02/13, 12:00,  -3.0,  66,   0.6,   1.0,   2.0,   0.0,  2.19, 
 03/02/13, 13:00,  -2.3,  58,   0.6,   1.1,   2.0,   0.0,  1.99, 
 03/02/13, 14:00,  -2.7,  56,   0.6,   1.1,   2.0,   0.0,  1.19, 
 03/02/13, 15:00,  -3.1,  55,   0.6,   1.1,   2.0,   0.0,  0.86, 
 03/02/13, 16:00,  -3.7,  55,   0.6,   1.1,   2.0,   0.0,  1.06, 
 03/02/13, 17:00,  -4.3,  61,   0.6,   1.1,   2.0,   0.0,  0.28, 
 03/02/13, 18:00,  -5.0,  64,   0.6,   1.1,   2.0,   0.0,  0.00, 
 03/02/13, 19:00,  -6.0,  81,   0.6,   1.1,   2.0,   0.0,  0.00, 
 03/02/13, 20:00,  -6.5,  81,   0.6,   1.1,   2.0,   0.0,  0.00, 
 03/02/13, 21:00,  -6.9,  79,   0.6,   1.1,   2.0,   0.0,  0.00, 
 03/02/13, 22:00,  -7.1,  77,   0.6,   1.1,   2.0,   0.0,  0.00, 
 03/02/13, 23:00,  -6.4,  72,   0.6,   1.1,   2.0,   0.0,  0.00, 
 03/02/14, 00:00,  -6.5,  75,   0.6,   1.1,   2.0,   0.0,  0.00, 
 03/02/14, 01:00,  -6.8,  83,   0.6,   1.1,   2.0,   0.0,  0.00, 
 03/02/14, 02:00,  -6.7,  85,   0.6,   1.1,   2.0,   0.0,  0.00, 
 03/02/14, 03:00,  -6.7,  87,   0.6,   1.1,   2.0,   0.0,  0.00, 
 03/02/14, 04:00,  -6.6,  88,   0.6,   1.1,   2.0,   0.0,  0.00, 
 03/02/14, 05:00,  -6.6,  86,   0.6,   1.1,   2.0,   0.0,  0.00, 
 03/02/14, 06:00,  -6.8,  88,   0.6,   1.1,   2.0,   0.0,  0.00, 
 03/02/14, 07:00,  -6.5,  87,   0.7,   1.1,   2.0,   0.0,  0.00, 
 03/02/14, 08:00,  -6.0,  87,   0.6,   1.1,   2.0,   0.0,  0.08, 
 03/02/14, 09:00,  -5.6,  90,   0.6,   1.1,   2.0,   0.0,  0.33, 
 03/02/14, 10:00,  -4.3,  88,   0.6,   1.1,   2.0,   0.0,  0.90, 
 03/02/14, 11:00,  -4.4,  85,   0.6,   1.1,   2.0,   0.5,  0.87, 
 03/02/14, 12:00,  -3.9,  92,   0.6,   1.1,   2.0,   0.5,  0.90, 
 03/02/14, 13:00,  -3.7,  91,   0.6,   1.1,   2.0,   0.0,  1.46, 
 03/02/14, 14:00,  -2.9,  87,   0.6,   1.1,   2.0,   0.0,  2.01, 
 03/02/14, 15:00,  -3.3,  76,   0.6,   1.1,   2.0,   0.5,  1.38, 
 03/02/14, 16:00,  -3.2,  76,   0.6,   1.1,   2.0,   0.0,  1.36, 
 03/02/14, 17:00,  -4.5,  88,   0.6,   1.1,   2.0,   0.0,  0.41, 
 03/02/14, 18:00,  -4.9,  89,   0.6,   1.1,   2.0,   0.0,  0.00, 
 03/02/14, 19:00,  -5.4,  89,   0.6,   1.1,   2.0,   0.0,  0.00, 
 03/02/14, 20:00,  -5.8,  90,   0.6,   1.1,   2.0,   0.0,  0.00, 
 03/02/14, 21:00,  -6.5,  96,   0.6,   1.1,   2.0,   0.0,  0.00, 
 03/02/14, 22:00,  -5.9,  78,   0.5,   1.1,   2.0,   0.0,  0.00, 
 03/02/14, 23:00,  -7.4,  86,   0.5,   1.1,   2.0,   0.0,  0.00, 
 03/02/15, 00:00,  -6.8,  76,   0.5,   1.1,   2.0,   0.0,  0.00, 
 03/02/15, 01:00,  -7.6,  78,   0.5,   1.0,   2.0,   0.0,  0.00, 
 03/02/15, 02:00,  -7.7,  87,   0.5,   1.1,   2.0,   0.0,  0.00, 
 03/02/15, 03:00,  -8.0,  84,   0.5,   1.0,   2.0,   0.0,  0.00, 
 03/02/15, 04:00,  -9.0,  84,   0.5,   1.0,   2.0,   0.0,  0.00, 
 03/02/15, 05:00,  -8.3,  79,   0.5,   1.0,   2.0,   0.0,  0.00, 
 03/02/15, 06:00,  -8.1,  77,   0.5,   1.0,   2.0,   0.0,  0.00, 
 03/02/15, 07:00,  -8.8,  81,   0.5,   1.0,   2.0,   0.0,  0.00, 
 03/02/15, 08:00,  -7.3,  78,   0.5,   1.0,   2.0,   0.0,  0.42, 
 03/02/15, 09:00,  -5.4,  69,   0.5,   1.1,   2.0,   0.0,  1.17, 
 03/02/15, 10:00,  -3.3,  65,   0.5,   1.1,   2.0,   0.0,  1.70, 
 03/02/15, 11:00,  -1.4,  51,   0.6,   1.1,   2.0,   0.0,  2.59, 
 03/02/15, 12:00,  -1.1,  59,   0.6,   1.0,   2.0,   0.0,  2.47, 
 03/02/15, 13:00,   0.0,  54,   0.6,   1.1,   2.0,   0.0,  2.51, 
 03/02/15, 14:00,   2.3,  45,   0.6,   1.0,   2.0,   0.0,  2.53, 
 03/02/15, 15:00,   0.6,  45,   0.6,   1.0,   2.0,   0.0,  1.96, 
 03/02/15, 16:00,   0.8,  45,   0.6,   1.0,   2.0,   0.0,  1.15, 
 03/02/15, 17:00,   0.4,  38,   0.6,   1.0,   2.0,   0.0,  0.39, 
 03/02/15, 18:00,  -1.7,  53,   0.6,   1.0,   2.0,   0.0,  0.02, 
 03/02/15, 19:00,  -2.6,  56,   0.6,   1.0,   2.0,   0.0,  0.00, 
 03/02/15, 20:00,  -2.4,  59,   0.5,   1.0,   2.0,   0.0,  0.00, 
 03/02/15, 21:00,  -2.2,  63,   0.5,   1.0,   2.0,   0.0,  0.00, 
 03/02/15, 22:00,  -2.3,  62,   0.5,   1.0,   2.0,   0.0,  0.00, 
 03/02/15, 23:00,  -1.9,  63,   0.5,   1.0,   2.0,   0.5,  0.00, 
 03/02/16, 00:00,  -1.9,  60,   0.5,   1.0,   2.0,   0.0,  0.00, 
 03/02/16, 01:00,  -0.8,  30,   0.5,   1.0,   2.0,   0.0,  0.00, 